Temperature
19 20 20 20 24 24 22 22 23 22 22 20 20 19 17 16 16 15 11 11 13 13 14 14 15 14 14 15 15 15 15 15 15 15 15 16 16 16 16 16 16 16 16 16 16 16 16 16 16
20 20 20 22 25 23 21 22 21 20 19 20 19 17 15 12 10 10 9 11 12 13 14 14 14 14 14 14 14 14 14 15 15 15 15 15 16 16 16 16 16 16 16 16 16 16 16 16 16
20 20 21 24 23 22 21 20 20 19 17 19 17 13 11 9 8 7 7 9 11 13 14 14 14 14 14 14 14 14 14 14 14 14 14 15 15 15 15 15 15 15 15 15 15 16 16 16 16
20 21 23 23 20 19 19 18 19 20 17 16 17 13 9 7 6 6 7 9 11 13 13 14 14 14 14 14 14 14 14 14 14 14 14 14 14 14 14 14 15 15 15 15 15 15 15 15 15
21 23 23 21 20 18 16 15 15 17 15 14 15 12 9 7 6 7 7 9 11 12 13 13 14 14 14 14 14 14 14 14 14 14 14 14 14 14 14 14 14 14 15 15 15 15 15 15 15
21 24 23 21 20 19 16 13 15 13 13 11 13 12 9 7 7 7 8 9 10 12 12 12 13 13 13 13 14 14 14 14 14 14 14 14 14 14 14 14 14 14 14 14 14 15 15 14 15
22 22 21 21 20 18 16 12 11 12 10 9 11 12 9 7 7 7 8 9 10 11 12 12 12 12 12 12 12 13 13 13 13 13 14 14 14 14 14 14 14 14 14 14 14 14 14 14 14
20 23 21 21 19 16 13 11 9 9 8 8 9 10 8 6 7 7 8 10 11 11 11 11 12 12 12 12 12 12 12 12 13 13 13 13 13 13 13 13 13 14 14 14 14 14 14 14 14
21 22 20 20 18 15 13 11 9 8 8 7 6 6 6 6 7 8 10 10 10 10 10 11 11 11 11 12 12 12 12 12 12 12 12 13 13 13 13 13 13 13 13 13 13 14 14 14 14
21 20 17 17 16 13 11 10 10 9 8 7 7 6 6 6 7 8 8 8 9 9 10 10 10 10 11 11 11 11 12 12 12 12 12 12 12 12 12 12 12 13 13 13 13 13 13 13 13
17 17 15 12 11 10 9 9 9 9 8 7 6 6 6 6 6 7 6 7 7 8 9 9 9 10 10 10 10 11 11 11 11 11 12 12 12 12 12 12 12 12 13 13 13 13 13 13 13
14 13 14 12 11 10 10 8 7 7 6 5 5 5 5 5 5 5 5 6 7 8 8 9 9 9 9 9 9 9 10 10 10 11 11 11 11 11 11 12 12 12 12 12 12 13 13 13 13
14 11 10 9 8 8 8 7 7 6 6 5 5 5 5 5 4 4 5 5 6 7 7 7 8 8 8 8 8 8 7 8 8 8 9 9 9 10 10 11 11 11 11 12 12 12 12 12 12
13 12 11 10 9 8 8 7 7 6 5 5 5 5 4 4 4 4 5 5 5 5 6 6 6 6 6 6 6 5 5 5 5 5 5 6 6 7 8 9 9 10 10 11 11 11 12 12 12
13 13 12 11 10 9 9 7 6 5 6 6 5 5 4 3 3 3 3 3 3 3 4 4 4 4 5 4 4 4 3 3 3 3 3 3 3 4 5 6 6 7 8 9 10 10 11 11 11
17 17 15 12 12 10 11 7 6 5 6 6 5 5 4 3 3 2 2 2 2 2 2 2 2 2 3 3 3 2 2 1 1 1 1 1 2 2 3 4 4 4 6 6 7 8 9 10 10
19 19 16 13 11 10 11 7 6 5 6 6 5 5 4 4 3 2 1 1 1 1 1 1 1 1 1 1 1 1 1 0 0 0 -0 0 1 1 2 2 2 3 4 4 4 5 6 8 9
19 18 16 13 10 10 9 7 5 5 5 5 5 5 4 3 2 1 1 0 0 0 -0 -0 -0 -0 -0 0 0 -0 -1 -1 -1 -1 -0 -0 -0 0 0 0 1 2 2 2 3 3 4 5 6
17 17 15 11 9 9 8 6 6 5 5 5 5 4 4 3 2 1 0 -0 -1 -1 -1 -1 -1 -1 -1 -1 -2 -2 -2 -2 -2 -2 -1 -1 -1 -1 -2 -2 -1 -0 0 1 1 1 3 4 5
17 16 13 9 8 8 7 6 6 5 5 4 4 4 3 3 2 1 -1 -1 -2 -3 -3 -2 -2 -3 -3 -4 -4 -4 -4 -4 -4 -4 -3 -2 -2 -3 -3 -4 -3 -3 -2 -1 -1 -0 0 2 3
16 16 14 11 8 8 7 7 6 6 5 4 4 4 3 2 1 0 -1 -2 -3 -4 -4 -4 -4 -4 -5 -5 -5 -5 -5 -5 -5 -5 -5 -4 -4 -4 -5 -5 -5 -4 -4 -4 -3 -2 -2 -1 0
16 13 13 11 10 11 9 12 8 6 6 5 5 4 3 2 1 -1 -2 -3 -4 -5 -5 -5 -5 -6 -6 -6 -7 -7 -7 -7 -7 -7 -7 -6 -6 -6 -6 -6 -5 -5 -5 -4 -4 -3 -3 -2 -2
14 11 12 11 12 12 10 10 11 6 6 6 5 4 3 1 -0 -1 -3 -4 -5 -5 -6 -6 -6 -7 -7 -7 -8 -8 -8 -8 -8 -8 -7 -7 -6 -6 -6 -6 -6 -6 -5 -5 -4 -3 -3 -2 -2
11 12 11 11 12 13 12 11 12 7 6 6 5 4 3 1 -0 -2 -3 -4 -5 -6 -7 -7 -7 -8 -8 -8 -8 -9 -9 -9 -8 -8 -8 -8 -8 -7 -7 -7 -7 -7 -6 -5 -4 -3 -3 -2 -2
14 15 16 16 15 15 10 10 11 6 5 4 4 3 2 1 -1 -3 -4 -5 -6 -7 -7 -8 -8 -9 -9 -9 -9 -9 -9 -9 -9 -9 -9 -9 -9 -8 -8 -8 -8 -7 -6 -5 -4 -4 -3 -2 -2
13 15 16 15 16 16 11 11 8 6 4 4 3 2 2 0 -2 -3 -4 -6 -7 -7 -8 -9 -9 -9 -10 -10 -10 -10 -10 -10 -10 -10 -10 -10 -10 -9 -9 -9 -8 -7 -7 -6 -5 -4 -3 -2 -2
13 13 12 13 13 12 13 10 5 5 5 4 3 2 1 -1 -3 -4 -5 -6 -7 -8 -8 -9 -10 -10 -10 -11 -11 -11 -11 -11 -11 -11 -11 -11 -10 -10 -9 -9 -8 -8 -7 -6 -6 -5 -4 -3 -2
11 12 12 13 13 14 14 12 10 5 5 4 3 2 0 -2 -3 -4 -5 -7 -8 -8 -9 -9 -10 -10 -11 -11 -11 -12 -12 -12 -12 -12 -12 -11 -11 -11 -10 -9 -9 -8 -7 -7 -6 -6 -5 -4 -3
11 11 11 12 12 12 12 12 7 5 4 4 3 1 -1 -3 -4 -5 -6 -7 -8 -9 -9 -10 -10 -11 -11 -12 -12 -12 -12 -12 -12 -12 -12 -12 -12 -11 -11 -10 -9 -9 -8 -7 -7 -6 -6 -5 -4
10 10 11 12 12 11 11 10 5 4 3 3 2 0 -2 -3 -4 -5 -6 -7 -8 -9 -10 -10 -11 -11 -11 -12 -12 -12 -12 -13 -13 -13 -13 -13 -13 -12 -12 -11 -10 -9 -8 -7 -7 -7 -6 -6 -5
Wind_Speed
8 5 2 2 5 11 14 10 11 14 12 16 17 16 17 16 10 7 14 26 26 22 22 24 23 18 15 13 13 12 12 12 12 11 11 11 11 11 11 11 10 10 10 10 10 10 9 8 7
6 3 1 0 11 16 13 11 14 13 9 7 13 16 16 15 13 8 17 25 24 23 26 30 31 27 21 18 16 14 14 14 13 13 13 12 12 12 12 12 12 12 12 12 12 12 11 10 8
2 2 2 6 13 13 9 10 8 11 19 13 10 13 9 10 11 12 19 22 21 23 26 32 34 34 32 28 24 20 18 17 15 15 15 15 14 14 14 13 13 13 13 13 12 12 12 12 10
2 1 5 15 21 14 11 13 8 7 14 18 11 11 9 11 10 14 17 20 21 24 27 32 35 35 36 35 34 31 27 24 21 19 18 18 17 16 16 15 15 14 13 12 12 11 11 11 11
1 6 13 18 17 13 17 18 18 15 8 15 15 12 9 13 14 14 16 21 22 25 28 31 35 34 34 35 34 34 33 31 28 26 24 21 19 18 18 17 16 15 14 13 11 10 9 9 10
3 5 13 16 15 11 14 19 13 22 15 12 10 10 10 15 16 15 18 21 25 26 28 30 33 33 33 34 34 32 32 31 30 30 28 26 22 19 18 18 16 15 14 13 12 10 9 8 8
6 8 12 14 12 9 9 11 22 15 19 15 9 7 7 19 15 14 17 21 25 28 29 29 30 30 29 29 31 31 31 31 29 30 30 27 24 22 19 18 17 16 15 14 13 12 11 9 8
4 6 9 8 9 7 7 9 13 19 16 14 13 9 8 15 14 14 16 20 24 27 28 29 30 29 28 26 27 27 27 29 28 29 30 27 24 23 22 20 20 19 17 15 14 13 12 11 10
3 7 9 6 7 8 8 9 11 15 19 22 20 18 12 12 14 16 20 23 24 25 26 27 29 29 28 25 24 24 24 26 26 26 28 24 21 20 20 21 22 22 19 16 15 14 13 12 13
6 7 8 9 10 14 16 15 10 12 19 19 19 17 15 15 18 22 24 23 24 24 23 25 26 27 26 23 22 20 20 21 22 23 24 21 20 18 19 20 21 22 21 17 14 14 14 14 13
8 9 11 15 18 19 17 16 12 10 15 16 15 15 15 18 21 22 22 21 20 21 21 23 24 25 25 21 20 18 18 18 19 21 23 21 19 18 18 17 17 18 18 16 15 13 12 12 11
11 13 11 11 13 14 14 13 15 18 12 12 13 14 16 19 20 20 20 20 20 20 22 22 24 24 24 22 19 18 17 17 17 19 21 20 16 16 17 15 16 15 14 15 14 11 12 13 13
13 14 22 25 26 25 25 21 18 17 13 12 13 15 17 18 18 17 17 18 20 21 22 21 24 24 24 21 19 18 17 17 18 17 18 20 17 15 16 15 16 16 15 14 13 12 12 12 12
17 21 19 17 19 15 19 15 10 11 11 12 14 15 16 17 17 18 20 20 21 21 21 21 23 24 24 21 20 18 18 18 18 17 19 20 18 17 16 15 15 15 16 17 15 14 12 11 10
24 20 16 11 11 11 12 14 10 9 9 12 13 14 15 16 16 17 18 18 19 19 20 20 21 24 24 22 21 19 18 19 18 18 19 20 20 20 18 14 13 14 17 18 15 15 12 11 11
9 8 7 5 4 4 3 8 8 6 8 12 12 12 13 14 16 16 17 18 18 19 19 19 20 22 23 21 20 19 19 19 17 17 18 20 21 21 19 14 13 17 17 14 12 12 12 11 11
5 4 6 5 4 2 4 8 8 5 8 10 11 11 12 13 16 16 17 18 19 19 19 20 20 21 22 21 20 19 19 18 18 17 17 19 20 21 19 15 15 18 14 12 12 12 12 13 12
3 4 4 4 5 5 8 13 10 6 7 9 10 11 12 14 15 15 17 18 19 19 20 20 20 22 22 19 18 16 17 16 16 16 18 20 19 21 19 15 17 17 13 12 13 15 13 13 13
3 5 6 4 4 5 11 14 10 6 5 7 9 11 13 14 14 14 16 18 19 20 20 21 21 21 19 16 16 16 15 14 14 16 20 20 20 21 18 15 16 15 13 15 16 14 15 13 12
6 7 6 6 5 5 10 9 8 5 4 6 9 11 13 15 15 15 16 17 18 18 19 19 20 20 18 16 15 14 15 13 14 17 19 20 21 21 18 17 15 15 15 16 16 15 13 13 11
3 0 4 7 5 6 8 9 11 7 3 3 7 10 13 14 15 15 15 17 17 18 19 18 20 19 18 20 15 14 13 13 13 15 14 20 22 21 20 19 17 16 15 14 16 15 15 13 13
2 1 4 10 8 5 9 5 12 11 5 1 7 11 14 15 14 14 15 17 18 17 17 18 19 18 18 19 16 18 14 15 17 15 15 20 21 21 20 20 19 17 15 16 16 15 14 14 13
2 1 4 9 7 3 8 7 5 10 7 2 7 12 14 14 14 14 14 16 16 16 16 16 18 17 18 18 17 17 16 15 15 16 18 18 18 20 21 21 20 17 15 17 18 17 16 13 13
1 3 4 5 5 6 4 7 3 6 4 2 8 12 14 15 14 13 13 15 15 16 15 16 17 17 18 18 18 18 19 19 19 19 18 17 15 16 20 22 20 19 16 17 18 17 18 15 15
2 4 4 3 4 3 3 5 2 8 4 4 9 13 15 14 13 13 14 16 16 17 16 16 17 18 18 19 19 19 19 19 19 19 18 18 16 16 19 20 19 18 18 19 18 18 17 17 16
5 6 6 7 8 6 3 4 3 7 3 4 8 12 14 14 13 13 14 15 16 17 16 17 17 18 18 19 19 18 19 15 15 18 18 17 16 17 20 22 21 21 21 19 17 16 17 15 15
2 2 4 5 6 7 5 2 4 5 1 6 10 13 15 13 13 13 14 14 16 16 16 17 18 18 19 19 19 18 18 18 18 19 18 16 16 18 22 22 20 20 20 19 19 15 17 17 15
3 1 2 4 7 8 9 5 2 7 2 8 12 15 15 13 12 13 13 14 15 15 15 16 17 18 18 19 18 16 18 18 18 17 19 19 20 21 21 21 21 20 19 19 18 17 17 18 16
0 1 1 2 4 6 9 5 6 5 3 9 13 14 13 12 12 13 14 14 15 15 16 16 17 18 18 18 18 18 17 17 18 17 18 19 19 20 21 21 21 20 20 19 17 17 18 17 17
1 1 2 4 5 5 8 3 9 4 5 9 13 13 11 11 12 14 14 14 15 16 16 16 17 17 18 18 18 18 17 18 18 18 19 20 20 20 20 20 20 20 20 20 18 17 16 16 16
Wind_Direction
327 325 288 244 123 92 81 58 70 71 67 61 65 72 70 53 36 52 350 349 352 4 11 13 9 1 353 349 345 340 337 335 335 336 333 329 325 322 318 314 313 315 313 300 289 281 272 264 253
324 307 258 357 107 96 78 62 59 49 32 83 65 62 61 50 29 14 350 343 356 12 19 18 18 15 9 359 350 342 336 330 326 323 320 316 312 310 308 308 308 310 314 307 291 279 273 265 257
297 303 56 75 79 79 73 36 40 68 48 48 68 52 49 24 11 358 346 347 7 21 25 23 24 25 24 19 11 0 350 340 330 322 315 309 303 301 299 299 300 303 306 305 292 276 267 261 251
271 83 77 86 78 58 45 25 24 84 48 30 75 66 69 29 4 352 353 6 20 27 28 28 28 28 28 27 25 21 14 4 353 342 331 319 308 301 298 296 294 293 297 298 294 282 269 258 247
11 85 92 88 83 72 50 36 47 53 57 34 68 83 66 24 12 8 13 19 26 29 28 29 29 28 28 27 26 25 22 20 15 7 356 342 325 313 304 297 297 292 289 291 291 285 274 261 247
78 91 97 90 91 81 56 31 43 49 52 36 59 85 61 19 15 17 21 26 30 30 28 27 26 26 26 27 25 24 22 20 18 14 8 360 348 333 319 308 303 301 293 289 287 285 276 265 251
86 81 93 102 94 70 43 45 36 46 44 32 19 77 56 19 15 21 27 30 32 30 28 24 22 20 20 22 22 21 21 19 17 15 9 3 359 353 343 331 319 310 300 293 288 282 277 266 256
60 101 99 89 89 76 59 64 50 43 48 40 40 63 36 15 20 27 33 33 31 27 25 21 19 16 14 13 15 14 16 15 13 13 9 5 1 359 354 350 344 331 314 298 290 283 276 266 257
50 90 85 71 96 98 91 90 72 66 71 66 62 63 51 32 32 33 33 30 26 24 21 17 15 12 9 7 6 7 9 10 9 8 5 3 0 359 353 352 349 345 334 314 294 283 279 272 251
52 84 62 49 94 106 85 85 99 76 63 61 59 57 49 41 37 36 32 25 21 17 14 13 12 9 6 3 1 1 2 3 5 4 2 359 356 354 352 346 349 345 341 328 307 289 275 261 251
61 76 90 78 94 103 94 77 71 96 59 54 55 51 44 40 38 34 30 24 18 13 12 10 9 7 5 0 358 357 356 356 357 360 359 356 354 351 351 348 347 344 343 340 329 309 284 268 259
83 57 92 97 94 96 96 92 74 71 81 74 65 56 47 42 37 30 24 19 14 12 10 6 6 5 2 359 355 354 353 352 351 353 356 355 351 349 348 342 341 340 340 336 331 321 304 286 268
89 83 82 91 90 91 92 91 89 84 86 80 70 59 50 43 36 31 23 18 13 10 6 3 2 2 359 357 354 352 351 349 345 347 351 352 348 345 343 337 336 334 335 332 327 320 313 299 285
112 113 107 101 98 90 92 90 86 88 90 80 66 56 48 41 32 25 19 14 10 6 2 360 359 359 357 355 353 349 347 345 343 344 345 347 346 341 337 332 331 330 332 328 321 316 310 300 288
121 114 111 119 117 127 96 76 86 101 91 74 62 54 46 38 32 26 18 12 7 3 360 359 356 355 355 352 350 347 344 343 341 340 340 345 344 339 335 329 326 329 328 323 319 316 311 304 295
144 141 119 107 123 156 143 108 107 103 89 72 57 48 42 37 30 24 18 11 6 2 359 357 356 353 353 350 346 344 342 341 339 338 339 344 342 341 335 328 325 328 324 320 318 315 313 306 297
189 171 136 119 53 125 130 136 132 115 90 72 54 42 33 27 23 19 15 10 5 2 358 356 356 354 351 348 344 341 341 339 339 339 341 342 340 341 335 327 327 328 324 320 317 316 313 305 298
168 162 137 117 62 99 125 136 139 120 88 70 51 36 27 22 17 12 9 7 3 0 357 356 354 353 350 347 343 341 340 339 338 339 340 339 338 338 334 328 329 329 324 323 321 315 309 302 295
108 134 122 99 107 110 137 145 149 140 95 60 39 26 18 14 10 9 7 4 0 357 356 355 353 351 351 349 344 341 339 336 336 337 336 335 335 335 333 329 328 327 323 321 317 316 312 306 304
129 130 124 118 120 134 154 163 165 158 94 48 27 17 9 2 1 2 1 360 357 355 354 352 351 348 349 347 340 336 332 332 333 334 332 333 334 333 332 331 329 325 321 317 317 317 311 305 301
129 211 188 168 139 153 168 199 201 184 154 58 28 15 9 2 355 355 355 356 355 355 354 350 348 345 347 345 341 339 337 336 339 337 333 332 330 329 329 329 328 323 320 313 312 310 304 303 301
176 42 197 173 181 199 207 264 190 192 193 31 17 13 6 360 354 352 353 354 353 352 351 348 346 345 346 345 344 343 341 340 336 333 328 328 328 327 326 327 326 322 317 311 307 303 298 294 290
357 3 202 198 218 230 213 258 171 179 216 303 5 4 0 357 352 351 353 351 349 349 349 347 345 345 346 346 345 342 340 338 333 333 330 331 328 327 326 327 325 321 316 310 306 301 293 285 279
300 146 131 173 215 255 213 229 223 177 202 345 358 356 354 354 350 347 348 349 348 349 349 347 345 346 347 346 345 343 340 338 335 336 334 333 329 327 327 327 324 320 316 312 308 303 296 286 275
351 296 290 275 252 273 126 237 302 130 106 17 350 347 348 349 346 344 347 348 349 348 348 346 345 345 347 346 345 341 339 337 334 335 332 331 329 328 326 326 322 320 316 313 311 307 299 292 281
9 351 352 315 307 312 217 260 118 145 107 2 346 344 345 347 347 346 347 347 347 346 346 345 344 344 345 345 343 340 339 336 332 331 329 327 326 325 323 324 321 319 319 317 316 314 310 300 291
337 22 352 284 283 278 258 187 159 179 243 344 347 348 350 348 346 345 346 347 347 346 345 344 342 342 343 343 341 339 339 336 332 330 328 327 326 324 325 324 322 320 320 320 320 317 318 315 304
31 106 257 297 315 307 299 272 236 174 302 344 348 349 349 348 346 345 347 348 347 345 343 343 343 341 341 341 340 337 337 336 333 330 330 329 327 326 325 325 324 322 322 322 321 320 322 323 317
180 157 209 261 278 294 306 330 106 123 20 348 348 350 349 348 347 346 347 347 346 344 344 343 343 342 342 341 339 338 338 336 335 333 331 330 328 328 327 326 325 324 324 325 321 322 325 327 324
265 236 234 288 286 256 283 306 125 97 10 352 349 352 350 348 347 346 345 344 345 344 343 342 342 341 341 339 338 337 338 338 337 336 334 332 330 329 328 327 326 326 327 327 322 322 329 332 330
Height
1536 1535 1534 1536 1534 1537 1548 1553 1550 1551 1553 1559 1557 1559 1566 1573 1576 1587 1589 1582 1578 1576 1573 1570 1567 1565 1563 1561 1559 1557 1556 1555 1553 1552 1550 1549 1548 1547 1546 1545 1544 1543 1542 1542 1541 1540 1540 1539 1539
1535 1535 1537 1536 1531 1545 1556 1556 1557 1560 1563 1562 1563 1567 1571 1582 1589 1591 1585 1581 1579 1576 1573 1570 1567 1565 1563 1561 1560 1558 1556 1554 1553 1551 1550 1548 1547 1546 1545 1544 1542 1541 1541 1540 1539 1538 1538 1537 1537
1536 1536 1539 1537 1542 1552 1561 1564 1563 1565 1566 1564 1569 1575 1583 1593 1595 1593 1589 1584 1581 1577 1573 1570 1568 1565 1563 1561 1559 1557 1556 1554 1553 1551 1549 1548 1546 1545 1543 1542 1541 1540 1539 1538 1537 1536 1536 1535 1535
1537 1540 1540 1543 1557 1566 1570 1571 1568 1565 1568 1571 1572 1584 1594 1602 1600 1597 1592 1587 1582 1577 1574 1571 1568 1565 1563 1560 1558 1556 1554 1552 1551 1549 1548 1546 1545 1543 1542 1541 1539 1538 1537 1536 1535 1534 1533 1532 1532
1539 1541 1544 1553 1562 1573 1578 1578 1576 1572 1576 1581 1579 1592 1600 1604 1602 1598 1593 1588 1582 1578 1574 1571 1568 1566 1563 1561 1558 1556 1554 1551 1549 1547 1545 1544 1542 1541 1540 1538 1537 1536 1535 1534 1533 1532 1530 1530 1529
1543 1543 1549 1560 1567 1572 1580 1584 1580 1582 1585 1588 1589 1594 1605 1607 1602 1599 1594 1589 1584 1579 1576 1572 1569 1566 1563 1561 1558 1556 1554 1551 1549 1546 1544 1542 1540 1538 1537 1535 1534 1533 1532 1531 1530 1529 1528 1527 1526
1546 1549 1556 1562 1569 1577 1586 1589 1590 1590 1592 1596 1596 1598 1607 1607 1604 1601 1596 1591 1585 1581 1577 1573 1570 1568 1565 1562 1559 1556 1554 1551 1548 1546 1543 1541 1539 1537 1535 1533 1531 1530 1529 1528 1527 1526 1525 1525 1524
1549 1553 1560 1564 1571 1584 1593 1595 1600 1599 1603 1604 1601 1604 1610 1610 1606 1602 1597 1591 1586 1582 1578 1575 1572 1569 1566 1563 1560 1557 1554 1551 1548 1545 1542 1539 1537 1535 1532 1530 1528 1526 1525 1524 1523 1522 1522 1521 1520
1552 1557 1565 1570 1575 1589 1595 1598 1604 1610 1609 1609 1609 1611 1614 1611 1607 1601 1594 1589 1585 1582 1579 1576 1573 1570 1567 1564 1560 1557 1553 1550 1547 1543 1540 1538 1535 1532 1530 1527 1525 1523 1521 1520 1519 1518 1518 1517 1516
1557 1563 1577 1581 1582 1593 1599 1601 1606 1613 1612 1613 1614 1614 1613 1610 1604 1597 1593 1590 1586 1583 1581 1578 1574 1571 1567 1564 1560 1556 1553 1549 1545 1542 1538 1535 1532 1530 1527 1524 1522 1520 1518 1516 1515 1514 1513 1513 1513
1567 1575 1586 1592 1593 1597 1600 1606 1609 1612 1616 1618 1617 1616 1613 1609 1603 1599 1596 1593 1590 1587 1583 1579 1575 1571 1567 1563 1559 1555 1551 1547 1544 1540 1536 1533 1530 1527 1524 1521 1519 1516 1514 1513 1511 1510 1510 1509 1508
1577 1588 1589 1596 1599 1601 1602 1609 1613 1616 1621 1622 1620 1617 1614 1609 1605 1602 1599 1596 1592 1588 1583 1579 1575 1571 1566 1562 1558 1554 1549 1545 1541 1537 1533 1530 1526 1523 1520 1517 1515 1513 1511 1509 1507 1506 1505 1505 1504
1583 1597 1599 1603 1604 1607 1608 1613 1616 1623 1624 1623 1621 1618 1614 1611 1608 1605 1601 1597 1593 1588 1583 1579 1574 1569 1565 1560 1556 1551 1547 1542 1538 1534 1530 1526 1522 1519 1516 1513 1510 1508 1506 1505 1503 1502 1501 1500 1499
1588 1596 1601 1606 1606 1610 1610 1616 1618 1626 1625 1624 1621 1618 1615 1612 1609 1605 1601 1596 1592 1587 1583 1578 1573 1568 1563 1558 1553 1548 1544 1540 1535 1531 1527 1523 1519 1515 1511 1508 1505 1503 1501 1499 1498 1497 1495 1494 1494
1589 1594 1602 1607 1608 1611 1611 1620 1625 1627 1626 1624 1621 1619 1617 1613 1610 1606 1601 1597 1593 1588 1583 1577 1572 1566 1561 1556 1550 1546 1541 1537 1532 1528 1524 1520 1516 1511 1507 1504 1500 1497 1495 1493 1492 1491 1490 1489 1488
1586 1586 1593 1605 1607 1610 1611 1621 1628 1628 1626 1623 1621 1620 1617 1614 1611 1607 1603 1598 1593 1588 1582 1576 1570 1564 1559 1553 1548 1543 1538 1534 1529 1525 1520 1516 1512 1508 1504 1500 1497 1493 1489 1487 1485 1484 1483 1482 1482
1579 1580 1589 1603 1609 1609 1609 1619 1627 1627 1625 1623 1621 1620 1618 1615 1612 1608 1603 1599 1593 1587 1581 1575 1569 1563 1557 1551 1545 1540 1535 1531 1526 1522 1517 1512 1507 1503 1500 1496 1493 1488 1485 1482 1480 1478 1476 1475 1474
1578 1580 1589 1599 1610 1610 1611 1618 1625 1626 1625 1623 1622 1620 1618 1615 1612 1608 1604 1599 1593 1587 1581 1575 1568 1562 1555 1549 1542 1537 1532 1527 1523 1519 1514 1509 1504 1500 1495 1492 1488 1484 1481 1477 1474 1472 1470 1468 1467
1581 1583 1592 1605 1612 1612 1614 1619 1623 1625 1624 1623 1621 1620 1618 1615 1613 1609 1604 1598 1592 1586 1579 1573 1566 1560 1553 1546 1539 1533 1528 1523 1519 1515 1511 1506 1501 1497 1492 1488 1484 1480 1477 1473 1469 1466 1463 1462 1462
1584 1587 1597 1610 1614 1613 1616 1619 1622 1623 1624 1623 1622 1620 1618 1615 1611 1607 1603 1597 1591 1585 1578 1571 1565 1558 1552 1545 1539 1533 1527 1522 1517 1511 1507 1503 1498 1494 1490 1485 1481 1477 1472 1468 1465 1462 1458 1456 1457
1587 1587 1591 1601 1613 1615 1616 1616 1619 1621 1623 1623 1621 1620 1617 1614 1610 1606 1601 1596 1590 1583 1576 1570 1563 1557 1551 1544 1537 1531 1525 1519 1514 1508 1503 1499 1495 1491 1487 1482 1478 1473 1469 1465 1461 1458 1454 1452 1450
1588 1594 1594 1599 1601 1600 1609 1588 1604 1615 1619 1620 1619 1618 1616 1613 1609 1605 1600 1594 1588 1582 1575 1568 1562 1555 1549 1542 1535 1529 1523 1518 1512 1507 1501 1496 1492 1487 1483 1479 1474 1470 1465 1461 1457 1454 1451 1447 1444
1593 1596 1595 1596 1594 1595 1601 1598 1589 1612 1614 1616 1617 1617 1615 1612 1608 1604 1599 1593 1587 1581 1573 1567 1560 1554 1547 1541 1534 1528 1523 1517 1511 1505 1499 1493 1488 1483 1479 1475 1470 1465 1461 1457 1453 1449 1446 1443 1439
1597 1597 1597 1596 1592 1586 1585 1592 1580 1605 1610 1614 1616 1616 1614 1611 1607 1602 1598 1592 1586 1579 1572 1565 1558 1552 1546 1539 1533 1527 1521 1515 1509 1503 1496 1490 1484 1479 1475 1470 1465 1461 1456 1452 1447 1443 1439 1436 1433
1594 1588 1580 1577 1576 1574 1593 1591 1589 1608 1614 1616 1616 1615 1612 1609 1605 1601 1596 1590 1583 1577 1570 1563 1557 1550 1544 1537 1531 1525 1519 1513 1507 1501 1494 1488 1482 1476 1470 1466 1461 1456 1451 1447 1442 1437 1432 1429 1426
1597 1592 1590 1588 1574 1570 1589 1586 1599 1611 1615 1616 1615 1614 1611 1607 1603 1599 1594 1588 1582 1575 1568 1561 1555 1548 1542 1535 1529 1523 1517 1511 1505 1499 1493 1487 1481 1474 1468 1462 1457 1452 1446 1441 1436 1430 1425 1421 1417
1597 1597 1601 1595 1588 1589 1576 1590 1608 1612 1613 1614 1613 1611 1609 1605 1601 1597 1593 1587 1580 1573 1566 1560 1553 1546 1540 1533 1526 1520 1514 1508 1502 1496 1491 1485 1478 1472 1465 1459 1453 1448 1442 1437 1431 1425 1419 1414 1410
1604 1602 1600 1595 1590 1579 1566 1578 1587 1607 1610 1612 1611 1609 1607 1603 1600 1596 1591 1585 1578 1572 1565 1558 1552 1545 1538 1531 1524 1518 1512 1506 1499 1493 1487 1481 1475 1469 1462 1456 1450 1444 1439 1433 1428 1422 1415 1409 1404
1603 1604 1601 1599 1596 1590 1579 1577 1601 1607 1611 1611 1610 1608 1605 1602 1598 1594 1589 1583 1577 1570 1563 1556 1549 1543 1536 1529 1522 1515 1509 1503 1497 1491 1485 1478 1472 1465 1459 1453 1447 1441 1435 1430 1425 1419 1413 1406 1400
1606 1603 1602 1599 1593 1596 1591 1590 1607 1610 1610 1610 1608 1606 1604 1600 1597 1592 1587 1581 1575 1568 1561 1554 1548 1541 1534 1527 1520 1514 1508 1501 1495 1489 1482 1476 1469 1463 1457 1450 1444 1438 1433 1427 1422 1417 1411 1405 1398